#timestamp,LO_Frequency,Hit,StdDev 
1539907215.5,286046985.7,P
1539907235.4,286046986.2,P
1539907255.2,286046986.2,Y
1539907275.0,286046998.4,P
1539907275.9,286046998.4,N
1539907295.8,286046999.4,N
1539907315.6,286046999.4,N
1539907335.5,286046999.6,N
1539907355.3,286046997.2,N
1539907375.1,286046999.6,N
1539907395.9,286046999.5,N
1539907415.7,286046997.4,N
1539907435.5,286046997.4,N
1539907455.4,286046994.9,N
1539907475.2,286046998.0,N
1539907495.1,286046995.4,N
1539907496.0,286046995.4,N
1539907515.8,286046993.7,N
1539907535.6,286046996.2,N
1539907555.5,286046993.3,N
1539907575.3,286046993.3,N
1539907595.1,286046993.4,N
1539907615.9,286046993.3,N
1539907635.7,286046993.9,N
1539907655.6,286046994.8,N
1539907675.4,286046994.6,N
1539907695.2,286046992.2,N
1539907715.1,286046992.5,N
1539907716.0,286046992.5,N
1539907735.8,286046992.4,N
1539907755.6,286046992.9,N
1539907775.5,286046992.6,N
1539907795.3,286046993.0,N
1539907815.2,286046993.1,N
1539907835.9,286046990.6,Y
1539907855.7,286046995.9,P
1539907875.6,286046995.9,P
1539907895.4,286046996.1,P
1539907915.2,286046996.4,Y
1539907935.1,286046998.7,P
1539907936.0,286046998.7,N
1539907955.8,286046998.3,N
1539907975.7,286046998.6,N
1539907995.5,286046996.6,Y
1539908015.3,286046998.1,P
1539908035.2,286047000.9,P
1539908055.0,286047000.5,N
1539908055.9,286047000.5,N
1539908075.8,286047000.7,N
1539908095.6,286047000.8,N
1539908115.4,286046998.7,N
1539908135.3,286046998.7,N
1539908155.1,286046999.6,N
1539908175.8,286046999.2,N
1539908195.7,286046996.5,Y
1539908215.5,286046999.5,P
1539908235.4,286046996.5,P
1539908255.2,286046999.1,N
1539908275.0,286046999.4,N
1539908275.9,286046999.4,N
1539908295.8,286046999.2,N
1539908315.6,286046999.5,N
1539908335.4,286046999.2,N
1539908355.3,286046999.3,N
1539908375.1,286046998.3,N
1539908395.9,286046999.5,N
1539908415.7,286046996.5,Y
1539908435.5,286046999.0,P
1539908455.4,286046998.7,P
1539908475.2,286047001.2,P
1539908495.0,286046999.5,N
1539908495.9,286046999.5,N
1539908515.8,286046999.2,N
1539908535.6,286046996.6,Y
1539908555.5,286046999.3,P
1539908575.3,286046999.2,P
1539908595.1,286046999.1,P
1539908615.9,286046996.6,Y
1539908635.7,286046998.4,P
1539908655.6,286046998.4,P
1539908675.4,286046998.8,P
1539908695.2,286046998.3,Y
1539908715.1,286047001.0,P
1539908716.0,286047001.0,N
1539908735.8,286047000.5,N
1539908755.6,286047001.1,N
1539908775.5,286047001.1,N
1539908795.3,286046998.2,N
1539908815.2,286047001.1,N
1539908835.9,286047001.2,N
1539908855.7,286047001.2,N
1539908875.6,286047001.0,N
1539908895.4,286047001.0,N
1539908915.2,286046998.2,N
1539908935.1,286046998.8,N
1539908936.0,286046998.8,N
1539908955.8,286046998.1,N
1539908975.7,286046999.4,N
1539908995.5,286046999.1,N
1539909015.3,286046998.4,N
1539909035.2,286046999.2,N
1539909055.0,286046998.9,N
1539909055.9,286046998.9,N
1539909075.7,286046998.9,N
1539909095.6,286046998.9,N
1539909115.4,286046998.5,N
1539909135.3,286046999.4,N
1539909155.1,286046999.5,N
1539909156.0,286046999.5,N
1539909175.8,286046999.6,N
1539909195.7,286046999.6,N
1539909215.5,286046999.6,N
1539909235.3,286046999.3,N
1539909255.2,286046996.6,Y
1539909275.0,286046998.4,P
1539909275.9,286046998.4,N
1539909295.8,286046999.6,N
1539909315.6,286046997.1,Y
1539909335.4,286046999.3,P
1539909355.3,286046998.7,P
1539909375.1,286046996.6,P
1539909395.9,286046999.6,N
1539909415.7,286046999.5,N
1539909435.5,286046997.4,N
1539909455.4,286046996.8,Y
1539909475.2,286046999.2,P
1539909495.0,286046996.7,P
1539909495.9,286046996.7,P
1539909515.8,286046997.0,N
1539909535.6,286046997.0,N
1539909555.5,286046997.4,N
1539909575.3,286046997.7,N
1539909595.1,286046997.1,Y
1539909615.9,286047000.7,P
1539909635.7,286047000.2,N
1539909655.5,286047000.5,N
1539909675.4,286047000.8,N
1539909695.2,286046998.4,N
1539909715.1,286046999.3,N
1539909716.0,286046999.3,N
1539909735.8,286046998.9,N
1539909755.6,286046997.0,N
1539909775.5,286046996.8,N
1539909795.3,286046999.2,N
1539909815.1,286046997.0,N
1539909835.9,286046997.3,N
1539909855.7,286046997.8,N
1539909875.6,286046996.7,N
1539909895.4,286046994.9,Y
1539909915.2,286046999.4,P
1539909935.1,286046996.9,P
1539909936.0,286046996.9,P
1539909955.8,286046999.5,N
1539909975.7,286046996.8,N
1539909995.5,286046997.1,N
1539910015.3,286046997.4,N
1539910035.2,286046997.2,N
1539910055.0,286046997.4,N
1539910055.9,286046997.4,N
1539910075.7,286046997.3,N
1539910095.6,286046998.0,N
1539910115.4,286046995.0,Y
1539910135.3,286046998.8,P
1539910155.1,286046999.3,N
1539910156.0,286046999.3,N
1539910175.8,286046999.0,N
1539910195.7,286046996.9,Y
1539910215.5,286046998.6,P
1539910235.3,286046998.4,P
1539910255.2,286046998.5,P
1539910275.0,286046999.4,Y
1539910275.9,286046999.4,P
1539910295.8,286047000.9,N
1539910315.6,286046998.2,N
1539910335.4,286046998.3,N
1539910355.3,286046998.4,N
1539910375.1,286046999.2,N
1539910395.9,286046999.2,N
1539910415.7,286046999.2,N
1539910435.5,286046999.6,N
1539910455.4,286046997.0,Y
1539910475.2,286046999.2,P
1539910495.0,286046996.6,P
1539910495.9,286046996.6,N
1539910515.8,286046997.3,N
1539910535.6,286046996.9,N
1539910555.5,286046998.8,N
1539910575.3,286046999.3,N
1539910595.1,286046996.6,N
1539910615.9,286046999.5,N
1539910635.7,286046997.6,N
1539910655.5,286046998.0,N
1539910675.4,286046997.4,N
1539910695.2,286046995.2,Y
1539910715.1,286046997.0,P
1539910716.0,286046997.0,P
1539910735.8,286046999.3,N
1539910755.6,286046999.5,N
1539910775.5,286046999.5,N
1539910795.3,286046996.6,Y
